Location: D�derode
(51.8092°N, 10.1065°E)
Time: 20:41:37
(UTC+00:00)

NOSS 3-2 (C) - Pass Details

Date: 01 December 2020
Orbit: 789 x 1424 km, 63.4° (Epoch: 09 January)

Event Time Altitude Azimuth Distance (km) Brightness Sun altitude
Rises 18:09:29 0° 198° (SSW) 3,348 6.6 -26.3°
Reaches altitude 10° 18:11:53 10° 192° (SSW) 2,469 5.8 -26.7°
Enters shadow 18:15:13 33° 168° (SSE) 1,462 4.3 -27.2°
